SES-3

Last updated on Mon Sep 15 2025 00:02:47 GMT+0000 (Coordinated Universal Time)

1 37748U 11035A 25257.25118567 -.00000114 00000+0 00000+0 0 9990 2 37748 0.6082 85.9219 0001756 86.0998 168.8691 1.00270785 51825
UTC large
Height (km)
Speed (km/s)
/
Latitude / Longitude
Inclination (degrees)
Orbital Period (minutes)
Azimuth
Elevation
Range (km)
Doppler Factor

Next 0 passes for location: London (51.5072 / 0.1276)

Sorry there are no passes over London.